TAF and METAR

Decoding for American and Canadian METARs and TAFs is not fully implemented.

Could not understand the following METAR

KEBG 192115Z AUTO 15008KT 10SM CLR 34/19 A2969 RMK AO2 T03370191
No TAF available for South Texas International Airport at Edinburg
South Texas International Airport at Edinburg in Colombia at 24m

Latest 5 airports